Location: Castillon
(43.0896°N, 0.2156°E)
Time: 02:13:54
(UTC+00:00)

Aureole 1 Rocket - Pass Details

Date: 16 June 2021
Orbit: 377 x 1372 km, 73.9° (Epoch: 04 August)

Event Time Altitude Azimuth Distance (km) Brightness Sun altitude
Rises 21:28:12 0° 341° (NNW) 3,286 8.3 -14.9°
Reaches altitude 10° 21:30:22 10° 344° (NNW) 2,489 7.3 -15.2°
Maximum altitude 21:36:12 73° 69° (ENE) 1,073 4.1 -15.8°
Enters shadow 21:41:00 23° 150° (SSE) 2,223 5.2 -16.2°
